Time,TemperatureF,DewpointF,PressureIn,WindDirection,WindDirectionDegrees,WindSpeedMPH,WindSpeedGustMPH,Humidity,HourlyPrecipIn,Conditions,Clouds,dailyrainin,SoftwareType,DateUTC
2014-12-22 00:06:00,27.5,26.0,30.23,East,84,0.0,0.0,95,0.00,,,0.00,weatherlink.com 1.10,2014-12-22 05:06:00,
2014-12-22 00:21:00,27.4,26.0,30.23,East,86,0.0,0.0,95,0.00,,,0.00,weatherlink.com 1.10,2014-12-22 05:21:00,
2014-12-22 00:36:00,27.0,26.0,30.22,East,84,0.0,0.0,95,0.00,,,0.00,weatherlink.com 1.10,2014-12-22 05:36:00,
2014-12-22 00:51:00,27.5,27.0,30.22,East,84,0.0,0.0,96,0.00,,,0.00,weatherlink.com 1.10,2014-12-22 05:51:00,
2014-12-22 01:07:00,27.1,26.0,30.22,East,85,0.0,0.0,96,0.00,,,0.00,weatherlink.com 1.10,2014-12-22 06:07:00,
2014-12-22 01:21:00,26.7,26.0,30.22,East,84,0.0,0.0,96,0.00,,,0.00,weatherlink.com 1.10,2014-12-22 06:21:00,
2014-12-22 01:37:00,26.5,26.0,30.21,East,84,0.0,0.0,96,0.00,,,0.00,weatherlink.com 1.10,2014-12-22 06:37:00,
2014-12-22 01:52:00,26.4,25.0,30.21,East,85,0.0,0.0,96,0.00,,,0.00,weatherlink.com 1.10,2014-12-22 06:52:00,
2014-12-22 02:06:00,25.9,25.0,30.22,East,85,0.0,0.0,96,0.00,,,0.00,weatherlink.com 1.10,2014-12-22 07:06:00,
2014-12-22 02:22:00,26.1,25.0,30.22,ESE,121,0.0,0.0,96,0.00,,,0.00,weatherlink.com 1.10,2014-12-22 07:22:00,
2014-12-22 02:36:00,26.5,26.0,30.21,ESE,122,0.0,0.0,96,0.00,,,0.00,weatherlink.com 1.10,2014-12-22 07:36:00,
2014-12-22 02:51:00,26.0,25.0,30.21,ESE,122,0.0,0.0,96,0.00,,,0.00,weatherlink.com 1.10,2014-12-22 07:51:00,
2014-12-22 03:06:00,26.2,25.0,30.20,ESE,121,0.0,0.0,96,0.00,,,0.00,weatherlink.com 1.10,2014-12-22 08:06:00,
2014-12-22 03:21:00,26.8,26.0,30.20,ESE,121,0.0,0.0,97,0.00,,,0.00,weatherlink.com 1.10,2014-12-22 08:21:00,
2014-12-22 03:36:00,26.8,26.0,30.20,ESE,120,0.0,0.0,96,0.00,,,0.00,weatherlink.com 1.10,2014-12-22 08:36:00,
2014-12-22 03:51:00,27.6,27.0,30.19,ESE,111,0.0,0.0,97,0.00,,,0.00,weatherlink.com 1.10,2014-12-22 08:51:00,
2014-12-22 04:07:00,28.0,27.0,30.20,SSW,208,5.0,7.0,97,0.00,,,0.00,weatherlink.com 1.10,2014-12-22 09:07:00,
2014-12-22 04:22:00,27.7,27.0,30.18,SSE,153,1.0,1.0,96,0.00,,,0.00,weatherlink.com 1.10,2014-12-22 09:22:00,
2014-12-22 04:37:00,28.6,28.0,30.17,NE,53,1.0,1.0,97,0.00,,,0.00,weatherlink.com 1.10,2014-12-22 09:37:00,
2014-12-22 04:52:00,29.1,28.0,30.17,South,183,0.0,1.0,96,0.00,,,0.00,weatherlink.com 1.10,2014-12-22 09:52:00,
2014-12-22 05:07:00,29.1,28.0,30.17,SE,138,1.0,1.0,96,0.00,,,0.00,weatherlink.com 1.10,2014-12-22 10:07:00,
2014-12-22 05:22:00,28.9,28.0,30.17,SE,138,0.0,1.0,96,0.00,,,0.00,weatherlink.com 1.10,2014-12-22 10:22:00,
2014-12-22 05:37:00,28.8,28.0,30.16,SE,138,0.0,1.0,96,0.00,,,0.00,weatherlink.com 1.10,2014-12-22 10:37:00,
2014-12-22 05:52:00,28.8,28.0,30.17,SSE,161,0.0,2.0,96,0.00,,,0.00,weatherlink.com 1.10,2014-12-22 10:52:00,
2014-12-22 06:07:00,28.9,28.0,30.16,SSE,158,1.0,1.0,96,0.00,,,0.00,weatherlink.com 1.10,2014-12-22 11:07:00,
2014-12-22 06:22:00,28.8,28.0,30.16,SSE,149,0.0,1.0,96,0.00,,,0.00,weatherlink.com 1.10,2014-12-22 11:22:00,
2014-12-22 06:37:00,28.9,28.0,30.17,SSE,149,0.0,0.0,96,0.00,,,0.00,weatherlink.com 1.10,2014-12-22 11:37:00,
2014-12-22 06:52:00,29.4,28.0,30.17,SSE,149,0.0,0.0,96,0.00,,,0.00,weatherlink.com 1.10,2014-12-22 11:52:00,
2014-12-22 07:07:00,29.9,29.0,30.16,SE,145,0.0,0.0,96,0.00,,,0.00,weatherlink.com 1.10,2014-12-22 12:07:00,
2014-12-22 07:22:00,30.1,29.0,30.16,SE,146,1.0,1.0,96,0.00,,,0.00,weatherlink.com 1.10,2014-12-22 12:22:00,
2014-12-22 07:37:00,30.4,29.0,30.16,SSE,153,0.0,1.0,96,0.00,,,0.00,weatherlink.com 1.10,2014-12-22 12:37:00,
2014-12-22 07:52:00,30.7,30.0,30.16,SSE,160,0.0,1.0,96,0.00,,,0.00,weatherlink.com 1.10,2014-12-22 12:52:00,
2014-12-22 08:07:00,31.0,30.0,30.17,SSE,160,0.0,1.0,96,0.00,,,0.00,weatherlink.com 1.10,2014-12-22 13:07:00,
2014-12-22 08:22:00,31.2,30.0,30.16,SSE,166,0.0,1.0,96,0.00,,,0.00,weatherlink.com 1.10,2014-12-22 13:22:00,
2014-12-22 08:37:00,31.6,31.0,30.17,SSE,156,0.0,1.0,96,0.00,,,0.00,weatherlink.com 1.10,2014-12-22 13:37:00,
2014-12-22 08:53:00,32.1,31.0,30.16,SSE,155,0.0,1.0,95,0.00,,,0.00,weatherlink.com 1.10,2014-12-22 13:53:00,
2014-12-22 09:07:00,32.7,32.0,30.17,South,184,0.0,1.0,95,0.00,,,0.00,weatherlink.com 1.10,2014-12-22 14:07:00,
2014-12-22 09:22:00,33.1,32.0,30.17,South,184,0.0,1.0,95,0.00,,,0.00,weatherlink.com 1.10,2014-12-22 14:22:00,
2014-12-22 09:37:00,33.8,33.0,30.17,SSE,162,0.0,1.0,95,0.00,,,0.00,weatherlink.com 1.10,2014-12-22 14:37:00,
2014-12-22 09:52:00,35.0,34.0,30.16,South,186,1.0,2.0,94,0.00,,,0.00,weatherlink.com 1.10,2014-12-22 14:52:00,
2014-12-22 10:07:00,35.5,33.0,30.16,South,169,0.0,2.0,92,0.00,,,0.00,weatherlink.com 1.10,2014-12-22 15:07:00,
2014-12-22 10:22:00,36.9,35.0,30.16,South,169,0.0,1.0,92,0.00,,,0.00,weatherlink.com 1.10,2014-12-22 15:22:00,
2014-12-22 10:37:00,40.7,38.0,30.14,SE,134,0.0,2.0,90,0.00,,,0.00,weatherlink.com 1.10,2014-12-22 15:37:00,
2014-12-22 10:52:00,42.7,39.0,30.13,ENE,72,0.0,2.0,86,0.00,,,0.00,weatherlink.com 1.10,2014-12-22 15:52:00,
2014-12-22 11:07:00,46.1,40.0,30.12,SSE,160,2.0,3.0,80,0.00,,,0.00,weatherlink.com 1.10,2014-12-22 16:07:00,
2014-12-22 11:22:00,48.0,41.0,30.11,ENE,77,0.0,2.0,76,0.00,,,0.00,weatherlink.com 1.10,2014-12-22 16:22:00,
2014-12-22 11:37:00,49.1,41.0,30.10,South,187,0.0,2.0,74,0.00,,,0.00,weatherlink.com 1.10,2014-12-22 16:37:00,
2014-12-22 11:52:00,50.3,41.0,30.09,SSE,158,2.0,2.0,71,0.00,,,0.00,weatherlink.com 1.10,2014-12-22 16:52:00,
2014-12-22 12:07:00,50.1,41.0,30.07,ENE,64,2.0,3.0,71,0.00,,,0.00,weatherlink.com 1.10,2014-12-22 17:07:00,
2014-12-22 12:22:00,50.8,42.0,30.06,ENE,61,2.0,4.0,71,0.00,,,0.00,weatherlink.com 1.10,2014-12-22 17:22:00,
2014-12-22 12:38:00,51.5,42.0,30.05,NE,53,2.0,6.0,70,0.00,,,0.00,weatherlink.com 1.10,2014-12-22 17:38:00,
2014-12-22 12:53:00,52.2,43.0,30.03,East,97,0.0,3.0,70,0.00,,,0.00,weatherlink.com 1.10,2014-12-22 17:53:00,
2014-12-22 13:08:00,54.0,44.0,30.02,ENE,62,2.0,6.0,68,0.00,,,0.00,weatherlink.com 1.10,2014-12-22 18:08:00,
2014-12-22 13:23:00,54.8,44.0,30.01,SE,146,0.0,6.0,67,0.00,,,0.00,weatherlink.com 1.10,2014-12-22 18:23:00,
2014-12-22 13:38:00,55.6,44.0,30.00,NE,41,4.0,4.0,66,0.00,,,0.00,weatherlink.com 1.10,2014-12-22 18:38:00,
2014-12-22 13:53:00,54.7,44.0,29.99,NE,54,2.0,4.0,67,0.00,,,0.00,weatherlink.com 1.10,2014-12-22 18:53:00,
2014-12-22 14:08:00,54.7,45.0,29.98,NNW,330,0.0,2.0,69,0.00,,,0.00,weatherlink.com 1.10,2014-12-22 19:08:00,
2014-12-22 14:23:00,56.0,45.0,29.97,SE,127,0.0,1.0,66,0.00,,,0.00,weatherlink.com 1.10,2014-12-22 19:23:00,
2014-12-22 14:38:00,57.2,45.0,29.97,West,276,1.0,5.0,65,0.00,,,0.00,weatherlink.com 1.10,2014-12-22 19:38:00,
2014-12-22 14:53:00,58.7,45.0,29.96,SW,233,1.0,4.0,61,0.00,,,0.00,weatherlink.com 1.10,2014-12-22 19:53:00,
2014-12-22 15:08:00,59.1,45.0,29.96,West,273,4.0,9.0,60,0.00,,,0.00,weatherlink.com 1.10,2014-12-22 20:08:00,
2014-12-22 15:23:00,58.9,45.0,29.96,SE,139,6.0,9.0,60,0.00,,,0.00,weatherlink.com 1.10,2014-12-22 20:23:00,
2014-12-22 15:38:00,58.5,44.0,29.96,SSW,198,2.0,9.0,60,0.00,,,0.00,weatherlink.com 1.10,2014-12-22 20:38:00,
2014-12-22 15:53:00,58.2,45.0,29.95,SSE,163,2.0,8.0,61,0.00,,,0.00,weatherlink.com 1.10,2014-12-22 20:53:00,
2014-12-22 16:08:00,57.8,44.0,29.95,SSE,166,2.0,10.0,61,0.00,,,0.00,weatherlink.com 1.10,2014-12-22 21:08:00,
2014-12-22 16:23:00,57.5,44.0,29.95,SW,217,5.0,8.0,61,0.00,,,0.00,weatherlink.com 1.10,2014-12-22 21:23:00,
2014-12-22 16:38:00,56.7,44.0,29.94,South,182,2.0,7.0,62,0.00,,,0.00,weatherlink.com 1.10,2014-12-22 21:38:00,
2014-12-22 16:53:00,55.3,43.0,29.94,SE,143,0.0,6.0,64,0.00,,,0.00,weatherlink.com 1.10,2014-12-22 21:53:00,
2014-12-22 17:08:00,54.3,43.0,29.95,SE,128,0.0,3.0,66,0.00,,,0.00,weatherlink.com 1.10,2014-12-22 22:08:00,
2014-12-22 17:23:00,53.8,43.0,29.95,East,87,0.0,3.0,67,0.00,,,0.00,weatherlink.com 1.10,2014-12-22 22:23:00,
2014-12-22 17:38:00,53.5,43.0,29.95,East,92,1.0,5.0,68,0.00,,,0.00,weatherlink.com 1.10,2014-12-22 22:38:00,
2014-12-22 17:53:00,52.8,42.0,29.95,SSE,157,0.0,4.0,68,0.00,,,0.00,weatherlink.com 1.10,2014-12-22 22:53:00,
2014-12-22 18:08:00,52.4,42.0,29.95,South,176,0.0,4.0,69,0.00,,,0.00,weatherlink.com 1.10,2014-12-22 23:08:00,
2014-12-22 18:23:00,52.1,42.0,29.96,SE,131,0.0,2.0,69,0.00,,,0.00,weatherlink.com 1.10,2014-12-22 23:23:00,
2014-12-22 18:38:00,51.9,42.0,29.96,ESE,110,1.0,2.0,69,0.00,,,0.00,weatherlink.com 1.10,2014-12-22 23:38:00,
2014-12-22 18:53:00,51.1,42.0,29.95,SE,142,0.0,3.0,70,0.00,,,0.00,weatherlink.com 1.10,2014-12-22 23:53:00,
2014-12-22 19:08:00,50.6,41.0,29.96,SE,143,0.0,4.0,71,0.00,,,0.00,weatherlink.com 1.10,2014-12-23 00:08:00,
2014-12-22 19:23:00,49.9,41.0,29.96,NE,51,1.0,3.0,72,0.00,,,0.00,weatherlink.com 1.10,2014-12-23 00:23:00,
2014-12-22 19:38:00,49.6,42.0,29.97,ENE,74,1.0,2.0,74,0.00,,,0.00,weatherlink.com 1.10,2014-12-23 00:38:00,
2014-12-22 19:53:00,49.6,42.0,29.98,ENE,72,0.0,1.0,74,0.00,,,0.00,weatherlink.com 1.10,2014-12-23 00:53:00,
2014-12-22 20:08:00,49.2,41.0,29.97,ENE,60,3.0,4.0,74,0.00,,,0.00,weatherlink.com 1.10,2014-12-23 01:08:00,
2014-12-22 20:23:00,48.3,41.0,29.96,ENE,60,2.0,2.0,76,0.00,,,0.00,weatherlink.com 1.10,2014-12-23 01:23:00,
2014-12-22 20:38:00,47.9,41.0,29.96,ENE,75,0.0,1.0,77,0.00,,,0.00,weatherlink.com 1.10,2014-12-23 01:38:00,
2014-12-22 20:53:00,47.0,40.0,29.96,ENE,64,2.0,3.0,78,0.00,,,0.00,weatherlink.com 1.10,2014-12-23 01:53:00,
2014-12-22 21:08:00,46.9,41.0,29.96,ENE,60,1.0,2.0,79,0.00,,,0.00,weatherlink.com 1.10,2014-12-23 02:08:00,
2014-12-22 21:23:00,47.0,40.0,29.97,ENE,60,0.0,1.0,78,0.00,,,0.00,weatherlink.com 1.10,2014-12-23 02:23:00,
2014-12-22 21:39:00,46.7,41.0,29.96,ENE,60,2.0,2.0,79,0.00,,,0.00,weatherlink.com 1.10,2014-12-23 02:39:00,
2014-12-22 21:53:00,45.9,40.0,29.95,ENE,70,1.0,3.0,80,0.00,,,0.00,weatherlink.com 1.10,2014-12-23 02:53:00,